Starlink 31940

operational
NORAD ID: 59873 Int'l Des: 2024-098 Owner: SPXS Country: US Constellation: starlink
LEOCIRCULAR

About Starlink 31940

Description loading...

Live Position

Loading 3D Globe...

Upcoming Passes

Altitude History

Altitude vs Time

uPlot chart will show altitude changes over time

Two-Line Element Set

1 59873U 24098R 25302.25927194 .00004057 00000-0 15672-3 0 9996
2 59873 43.0027 292.6273 0001477 276.2730 83.7953 15.27613602 81835
Epoch: Oct 29, 2025 • Age: 35 hours

Current Status

Altitude 483.8 km
Velocity 7.63 km/s
Sub-Earth Point 26.15°N, 133.19°E
Launch Date May 24, 2024
Age 1.4 years
Type internet

Technical Details

Classification Payload
Mass 730.00 kg
Dry Mass 700.00 kg
Total Mass 730.00 kg
Length 0.30 m
Diameter 4.10 m
Span 29.00 m
Shape Box + pan
Manufacturer SPXS
Bus Type Starlink V2M
Phase Status In Orbit
Owner/State SPXS/US

Large Constellations

Loading constellations...